This demonstration page uses our WeatherBlox Daily Observations layout. Learn more.

Left ArrowRight Arrow

39.01783, -85.05884

Hourly Observations for June 23, 2022

Temp ( °F °C ) Dew Point ( °F °C ) Humidity (%) Winds ( mph kmh ) Pressure ( in mb ) Visibility ( mi km ) Precip ( " mm )
12:52 am 00:52 Mostly Clear 73 22.8 61 16.1 66 66 N 7 11 29.97 1015 10 16 0.00 0.00
1:52 am 01:52 Clear 72 22.2 60 15.6 66 66 NNW 7 11 29.96 1015 10 16 0.00 0.00
2:52 am 02:52 Clear 69 20.6 61 16.1 76 76 NW 8 13 29.95 1014 10 16 0.00 0.00
3:52 am 03:52 Clear 68 20 60 15.6 76 76 NW 8 13 29.95 1014 10 16 0.00 0.00
4:52 am 04:52 Clear 65 18.3 59 15 81 81 NNW 6 9 29.95 1014 10 16 0.00 0.00
5:52 am 05:52 Clear 66 18.9 58 14.4 75 75 NNW 8 13 29.95 1014 10 16 0.00 0.00
6:52 am 06:52 Sunny 65 18.3 58 14.4 78 78 NNW 10 17 29.96 1015 10 16 0.00 0.00
7:52 am 07:52 Sunny 67 19.4 59 15 76 76 N 9 15 29.96 1015 10 16 0.00 0.00
8:52 am 08:52 Sunny 70 21.1 60 15.6 71 71 N 12 19 29.98 1015 10 16 0.00 0.00
9:52 am 09:52 Sunny 74 23.3 63 17.2 69 69 N 9 15 29.98 1015 10 16 0.00 0.00
10:52 am 10:52 Sunny 77 25 64 17.8 64 64 N 12 19 29.97 1015 10 16 0.00 0.00
11:52 am 11:52 Sunny 80 26.7 62 16.7 54 54 N 13 20 29.98 1015 10 16 0.00 0.00
12:52 pm 12:52 Mostly Sunny 82 27.8 61 16.1 49 49 NNE 10 17 29.97 1015 10 16 0.00 0.00
1:52 pm 13:52 Mostly Sunny 84 28.9 63 17.2 49 49 N 12 19 29.97 1015 10 16 0.00 0.00
2:52 pm 14:52 Mostly Sunny 85 29.4 60 15.6 43 43 N 9 15 29.96 1015 10 16 0.00 0.00
3:52 pm 15:52 Mostly Sunny 86 30 59 15 40 40 N 10 17 29.95 1014 10 16 0.00 0.00
4:52 pm 16:52 Mostly Sunny 86 30 57 13.9 37 37 N 13 20 29.94 1014 10 16 0.00 0.00
5:52 pm 17:52 Mostly Sunny 85 29.4 55 12.8 36 36 NNW 10 17 29.94 1014 10 16 0.00 0.00
6:52 pm 18:52 Mostly Sunny 85 29.4 55 12.8 36 36 N 8 13 29.95 1014 10 16 0.00 0.00
7:52 pm 19:52 Mostly Sunny 83 28.3 54 12.2 37 37 NNW 8 13 29.96 1015 10 16 0.00 0.00
8:52 pm 20:52 Mostly Sunny 80 26.7 55 12.8 42 42 NNW 7 11 29.96 1014 10 16 0.00 0.00
9:52 pm 21:52 Mostly Clear 76 24.4 53 11.7 45 45 NNW 6 9 29.96 1015 10 16 0.00 0.00
10:52 pm 22:52 Clear 72 22.2 52 11.1 50 50 Calm 29.97 1015 10 16 0.00 0.00
11:52 pm 23:52 Clear 70 21.1 54 12.2 57 57 Calm 29.97 1015 10 16 0.00 0.00

Powered by AerisWeather